Volver al catálogo

SBS 3 R/B

PAM-D

ActivoHEO
NORAD 13658·ROCKET BODY·🇺🇸 United States

Lanzado Nov 11, 1982 desde Cape Canaveral Space Force Station

Loading…

Próximos Pases (próximas 24 horas)

TLE

ActualizadoSource: Space-Track

Época: Sep 14, 2026, 10:51 UTC

1 13658U 82110D   26257.45259768 -.00000123  00000-0  44605-3 0  9992
2 13658  23.5715 280.6833 7052519 104.1398 337.3427  2.50513620304564

Sigue SBS 3 R/B en tiempo real con AllMySat

Download on the App Store